FW3157 Weather Reports


Display with metric or nautical units.
time (UTC)temp
F
wind
direction
speed
MPH
gust
MPH
rain 1hr
in
rain 24hr
in
rain mn
in
humidity
%
barometer
mb
20260831231040 79 96 1.0 3.0 0.00 0.00 0.00 68 1014.9
20260831230539 79 85 1.0 2.0 0.00 0.00 0.00 68 1015.0
20260831230041 79 89 0.0 2.0 0.00 0.00 0.00 68 1015.0
20260831225534 79 89 0.0 2.0 0.00 0.00 0.00 68 1015.1
20260831225028 79 89 1.0 2.0 0.00 0.00 0.00 68 1015.1
20260831224521 79 89 1.0 2.0 0.00 0.00 0.00 68 1015.1
20260831224014 80 89 0.0 2.0 0.00 0.00 0.00 68 1015.2
20260831223510 80 89 0.0 1.0 0.00 0.00 0.00 68 1015.2
20260831223008 80 89 1.0 2.0 0.00 0.00 0.00 67 1015.1
20260831222507 80 89 2.0 2.0 0.00 0.00 0.00 67 1015.0
20260831222006 80 90 1.0 2.0 0.00 0.00 0.00 67 1015.0
20260831221721 80 108 1.0 3.0 0.00 0.00 0.00 67 1015.0
20260831221003 80 148 1.0 3.0 0.00 0.00 0.00 67 1015.0
20260831220459 80 105 0.0 2.0 0.00 0.00 0.00 68 1015.0
20260831215957 80 150 0.0 1.0 0.00 0.00 0.00 68 1015.1
20260831215455 80 150 0.0 1.0 0.00 0.00 0.00 68 1015.2
20260831214953 80 125 0.0 1.0 0.00 0.00 0.00 67 1015.3
20260831214451 80 125 0.0 2.0 0.00 0.00 0.00 67 1015.3
20260831213951 80 137 0.0 2.0 0.00 0.00 0.00 67 1015.3
20260831213451 80 105 0.0 1.0 0.00 0.00 0.00 66 1015.3
20260831212950 80 105 0.0 1.0 0.00 0.00 0.00 66 1015.3
20260831212449 80 105 0.0 1.0 0.00 0.00 0.00 66 1015.4
20260831211946 80 105 0.0 0.0 0.00 0.00 0.00 65 1015.4
20260831211711 80 105 0.0 1.0 0.00 0.00 0.00 65 1015.3
20260831210941 80 105 0.0 1.0 0.00 0.00 0.00 65 1015.3
20260831210439 80 105 0.0 1.0 0.00 0.00 0.00 65 1015.3
20260831210157 80 105 0.0 2.0 0.00 0.00 0.00 65 1015.3
20260831205435 80 105 0.0 2.0 0.00 0.00 0.00 65 1015.3
20260831205152 80 105 1.0 2.0 0.00 0.00 0.00 65 1015.4
20260831204427 80 105 0.0 1.0 0.00 0.00 0.00 65 1015.4
20260831203921 80 105 0.0 1.0 0.00 0.00 0.00 66 1015.4
20260831203414 80 105 0.0 2.0 0.00 0.00 0.00 66 1015.5
20260831202909 80 105 0.0 2.0 0.00 0.00 0.00 66 1015.5
20260831202403 80 105 0.0 2.0 0.00 0.00 0.00 66 1015.5
20260831201857 80 105 0.0 2.0 0.00 0.00 0.00 67 1015.5
20260831201351 80 105 1.0 2.0 0.00 0.00 0.00 67 1015.4
20260831200844 80 124 0.0 1.0 0.00 0.00 0.00 67 1015.3
20260831200338 80 145 0.0 1.0 0.00 0.00 0.00 68 1015.2
20260831195834 80 210 0.0 2.0 0.00 0.00 0.00 68 1015.1
20260831195326 80 181 0.0 2.0 0.00 0.00 0.00 67 1015.1
20260831194821 80 152 0.0 2.0 0.00 0.00 0.00 67 1015.2
20260831194314 80 211 1.0 3.0 0.00 0.00 0.00 67 1015.2
20260831193809 80 137 1.0 4.0 0.00 0.00 0.00 67 1015.1
20260831193303 80 151 1.0 4.0 0.00 0.00 0.00 67 1015.0
20260831192757 80 91 1.0 4.0 0.00 0.00 0.00 68 1014.9
20260831192513 80 184 1.0 5.0 0.00 0.00 0.00 68 1015.0
20260831191746 80 211 2.0 5.0 0.00 0.00 0.00 68 1015.0
20260831191505 80 135 1.0 4.0 0.00 0.00 0.00 68 1015.0
20260831190732 80 122 2.0 6.0 0.00 0.00 0.00 68 1015.0
20260831190227 80 171 3.0 6.0 0.00 0.00 0.00 68 1014.8
20260831185720 81 81 3.0 6.0 0.00 0.00 0.00 67 1014.9
20260831185215 81 149 2.0 7.0 0.00 0.00 0.00 67 1014.9
20260831184708 81 84 2.0 7.0 0.00 0.00 0.00 66 1014.9
20260831184202 81 136 3.0 6.0 0.00 0.00 0.00 66 1014.8
20260831183656 81 219 3.0 7.0 0.00 0.00 0.00 66 1014.8
20260831183410 81 154 3.0 9.0 0.00 0.00 0.00 66 1014.8
20260831182644 81 75 2.0 9.0 0.00 0.00 0.00 65 1014.8
20260831182138 81 108 1.0 7.0 0.00 0.00 0.00 65 1014.7
20260831181633 81 146 2.0 6.0 0.00 0.00 0.00 65 1014.7
20260831181127 81 133 3.0 7.0 0.00 0.00 0.00 65 1014.7
20260831180620 81 143 4.0 10.0 0.00 0.00 0.00 65 1014.7
20260831180115 81 274 3.0 10.0 0.00 0.00 0.00 65 1014.6
20260831175609 82 172 2.0 8.0 0.00 0.00 0.00 65 1014.6
20260831175102 82 216 3.0 8.0 0.00 0.00 0.00 65 1014.5
20260831174823 82 204 3.0 9.0 0.00 0.00 0.00 65 1014.4
20260831174051 82 148 3.0 9.0 0.00 0.00 0.00 65 1014.3
20260831173545 82 216 3.0 7.0 0.00 0.00 0.00 64 1014.3
20260831173039 82 118 3.0 7.0 0.00 0.00 0.00 65 1014.3
20260831172533 82 129 3.0 9.0 0.00 0.00 0.00 65 1014.3
20260831172251 82 214 3.0 9.0 0.00 0.00 0.00 65 1014.2
20260831171520 82 89 2.0 7.0 0.00 0.00 0.00 65 1014.1
20260831171014 83 84 3.0 7.0 0.00 0.00 0.00 65 1014.0
20260831170508 83 101 3.0 7.0 0.00 0.00 0.00 65 1014.0
20260831170004 83 144 3.0 8.0 0.00 0.00 0.00 64 1014.0
20260831165456 83 171 4.0 11.0 0.00 0.00 0.00 63 1014.0
20260831165215 83 107 4.0 11.0 0.00 0.00 0.00 63 1014.0
20260831164705 83 205 4.0 9.0 0.00 0.00 0.00 63 1013.9
20260831163938 84 234 4.0 8.0 0.00 0.00 0.00 63 1013.9
20260831163433 84 196 4.0 9.0 0.00 0.00 0.00 63 1013.8
20260831162927 84 236 4.0 10.0 0.00 0.00 0.00 62 1013.8
20260831162425 85 182 5.0 10.0 0.00 0.00 0.00 60 1013.8
20260831161925 85 143 4.0 10.0 0.00 0.00 0.00 60 1013.7
20260831161644 85 198 4.0 10.0 0.00 0.00 0.00 60 1013.6
20260831161155 86 141 4.0 8.0 0.00 0.00 0.00 59 1013.7
20260831160643 86 188 5.0 10.0 0.00 0.00 0.00 59 1013.7
20260831155925 86 122 5.0 10.0 0.00 0.00 0.00 59 1013.7
20260831155424 86 173 4.0 10.0 0.00 0.00 0.00 59 1013.6
20260831154925 87 245 4.0 10.0 0.00 0.00 0.00 58 1013.7
20260831154425 87 236 5.0 10.0 0.00 0.00 0.00 57 1013.8
20260831153925 87 176 5.0 10.0 0.00 0.00 0.00 58 1013.7
20260831153425 88 145 3.0 8.0 0.00 0.00 0.00 57 1013.8
20260831152925 88 224 4.0 10.0 0.00 0.00 0.00 56 1013.8
20260831152425 88 205 4.0 10.0 0.00 0.00 0.00 56 1013.8
20260831151925 88 122 5.0 11.0 0.00 0.00 0.00 54 1013.8
20260831151425 88 192 5.0 11.0 0.00 0.00 0.00 53 1013.8
20260831150925 88 235 5.0 11.0 0.00 0.00 0.00 52 1013.9
20260831150425 89 243 4.0 11.0 0.00 0.00 0.00 51 1013.9
20260831145925 89 245 4.0 10.0 0.00 0.00 0.00 51 1013.8
20260831145645 89 99 4.0 10.0 0.00 0.00 0.00 51 1013.8
20260831144926 89 201 3.0 9.0 0.00 0.00 0.00 50 1013.8
20260831144425 89 237 4.0 13.0 0.00 0.00 0.00 51 1013.8
20260831143925 89 176 5.0 13.0 0.00 0.00 0.00 51 1013.9
20260831143425 89 211 5.0 11.0 0.00 0.00 0.00 52 1013.9
20260831142923 89 212 6.0 13.0 0.00 0.00 0.00 52 1013.9
20260831142423 89 290 5.0 13.0 0.00 0.00 0.00 51 1014.0
20260831141922 89 217 5.0 11.0 0.00 0.00 0.00 50 1014.0
20260831141421 89 207 4.0 10.0 0.00 0.00 0.00 49 1014.0
20260831140921 90 186 4.0 10.0 0.00 0.00 0.00 49 1014.0
20260831140422 89 201 4.0 10.0 0.00 0.00 0.00 50 1014.1
20260831135919 90 267 4.0 8.0 0.00 0.00 0.00 48 1014.1
20260831135417 90 289 4.0 11.0 0.00 0.00 0.00 48 1014.1
20260831134917 90 256 3.0 11.0 0.00 0.00 0.00 47 1014.1
20260831134417 90 171 4.0 9.0 0.00 0.00 0.00 48 1014.2
20260831133919 89 213 5.0 11.0 0.00 0.00 0.00 49 1014.2
20260831133414 89 205 5.0 11.0 0.00 0.00 0.00 47 1014.4
20260831132915 89 230 5.0 11.0 0.00 0.00 0.00 49 1014.3
20260831132413 89 191 6.0 11.0 0.00 0.00 0.00 49 1014.3
20260831131912 89 164 6.0 13.0 0.00 0.00 0.00 48 1014.3
20260831131412 89 217 5.0 13.0 0.00 0.00 0.00 47 1014.4
20260831130913 90 203 3.0 10.0 0.00 0.00 0.00 47 1014.4
20260831130411 90 225 3.0 7.0 0.00 0.00 0.00 48 1014.5
20260831130351 90 257 3.0 11.0 0.00 0.00 0.00 49 1014.6
20260831125409 89 215 3.0 11.0 0.00 0.00 0.00 49 1014.6
20260831124908 89 242 4.0 10.0 0.00 0.00 0.00 51 1014.6
20260831124408 89 212 5.0 10.0 0.00 0.00 0.00 51 1014.7
20260831123908 88 103 5.0 10.0 0.00 0.00 0.00 53 1014.8
20260831123408 89 185 5.0 10.0 0.00 0.00 0.00 52 1014.8
20260831122904 88 212 5.0 11.0 0.00 0.00 0.00 53 1014.9
20260831122405 88 193 5.0 11.0 0.00 0.00 0.00 51 1014.9
20260831121905 88 257 4.0 10.0 0.00 0.00 0.00 53 1015.0
20260831121629 87 192 5.0 12.0 0.00 0.00 0.00 56 1015.0
20260831120904 87 191 5.0 12.0 0.00 0.00 0.00 57 1015.1
20260831120405 87 203 6.0 11.0 0.00 0.00 0.00 58 1015.1
20260831115905 87 183 6.0 11.0 0.00 0.00 0.00 58 1015.2
20260831115404 87 231 5.0 11.0 0.00 0.00 0.00 56 1015.3
20260831114905 87 255 6.0 12.0 0.00 0.00 0.00 57 1015.3
20260831114616 87 248 5.0 12.0 0.00 0.00 0.00 57 1015.4
20260831113857 87 245 5.0 10.0 0.00 0.00 0.00 57 1015.4
20260831113356 87 277 5.0 11.0 0.00 0.00 0.00 57 1015.4
20260831112857 87 239 5.0 13.0 0.00 0.00 0.00 58 1015.4
20260831112356 86 226 5.0 13.0 0.00 0.00 0.00 57 1015.5
20260831111856 86 275 6.0 13.0 0.00 0.00 0.00 57 1015.5
20260831111356 87 276 5.0 11.0 0.00 0.00 0.00 56 1015.5
20260831110856 86 266 5.0 14.0 0.00 0.00 0.00 57 1015.5
20260831110357 86 206 5.0 14.0 0.00 0.00 0.00 57 1015.6
20260831105857 86 276 5.0 12.0 0.00 0.00 0.00 57 1015.6
20260831105355 86 203 5.0 12.0 0.00 0.00 0.00 57 1015.6
20260831104850 86 233 6.0 14.0 0.00 0.00 0.00 56 1015.7
20260831104343 86 292 6.0 14.0 0.00 0.00 0.00 55 1015.7
20260831103837 86 250 5.0 13.0 0.00 0.00 0.00 56 1015.8
20260831103332 86 215 5.0 13.0 0.00 0.00 0.00 55 1015.8
20260831102826 86 257 6.0 13.0 0.00 0.00 0.00 55 1015.8
20260831102320 86 270 6.0 13.0 0.00 0.00 0.00 56 1015.8
20260831101814 86 328 6.0 13.0 0.00 0.00 0.00 57 1015.8
20260831101308 86 264 5.0 12.0 0.00 0.00 0.00 57 1015.9
20260831100802 86 260 5.0 10.0 0.00 0.00 0.00 57 1016.0
20260831100524 86 260 5.0 10.0 0.00 0.00 0.00 58 1016.0
20260831095800 86 251 4.0 10.0 0.00 0.00 0.00 57 1016.1
20260831095301 85 264 5.0 9.0 0.00 0.00 0.00 56 1016.2
20260831095023 85 271 5.0 9.0 0.00 0.00 0.00 56 1016.2
20260831094259 85 232 4.0 11.0 0.00 0.00 0.00 62 1016.2
20260831093754 84 271 5.0 11.0 0.00 0.00 0.00 65 1016.2
20260831093254 84 259 4.0 8.0 0.00 0.00 0.00 69 1016.3
20260831092755 83 257 4.0 8.0 0.00 0.00 0.00 71 1016.3
20260831092254 83 285 5.0 9.0 0.00 0.00 0.00 74 1016.4
20260831091755 82 269 5.0 9.0 0.00 0.00 0.00 74 1016.4
20260831091254 82 255 5.0 9.0 0.00 0.00 0.00 74 1016.5
20260831090754 82 289 5.0 9.0 0.00 0.00 0.00 73 1016.6
20260831090255 82 300 5.0 9.0 0.00 0.00 0.00 72 1016.7
20260831085754 82 293 4.0 8.0 0.00 0.00 0.00 70 1016.7
20260831085254 82 254 4.0 8.0 0.00 0.00 0.00 69 1016.7
20260831084748 82 278 4.0 7.0 0.00 0.00 0.00 69 1016.7
20260831084242 82 293 4.0 6.0 0.00 0.00 0.00 69 1016.9
20260831084008 82 304 3.0 6.0 0.00 0.00 0.00 69 1016.9
20260831083230 82 283 4.0 7.0 0.00 0.00 0.00 69 1016.7
20260831082728 82 293 4.0 7.0 0.00 0.00 0.00 69 1016.7
20260831082217 82 284 4.0 7.0 0.00 0.00 0.00 69 1016.7
20260831081712 82 289 4.0 7.0 0.00 0.00 0.00 68 1016.7
20260831081205 82 291 4.0 7.0 0.00 0.00 0.00 67 1016.6
20260831080659 82 271 4.0 7.0 0.00 0.00 0.00 67 1016.6
20260831080154 82 256 3.0 6.0 0.00 0.00 0.00 66 1016.7
20260831075914 82 264 3.0 7.0 0.00 0.00 0.00 67 1016.6
20260831075408 82 280 3.0 7.0 0.00 0.00 0.00 68 1016.6
20260831075110 82 287 3.0 6.0 0.00 0.00 0.00 68 1016.6
20260831074130 82 299 3.0 6.0 0.00 0.00 0.00 67 1016.6
20260831073624 82 257 3.0 6.0 0.00 0.00 0.00 66 1016.6
20260831073118 82 286 3.0 6.0 0.00 0.00 0.00 65 1016.5
20260831072829 82 269 2.0 6.0 0.00 0.00 0.00 64 1016.5
20260831072106 82 318 2.0 5.0 0.00 0.00 0.00 64 1016.5
20260831071600 83 258 1.0 4.0 0.00 0.00 0.00 63 1016.5
20260831071053 82 236 2.0 5.0 0.00 0.00 0.00 64 1016.5
20260831070547 82 271 2.0 5.0 0.00 0.00 0.00 63 1016.6
20260831070042 83 265 1.0 4.0 0.00 0.00 0.00 62 1016.5
20260831065536 83 198 1.0 3.0 0.00 0.00 0.00 62 1016.5
20260831065030 83 279 1.0 3.0 0.00 0.00 0.00 61 1016.5
20260831064530 83 155 1.0 3.0 0.00 0.00 0.00 61 1016.5
20260831064028 84 281 0.0 3.0 0.00 0.00 0.00 59 1016.5
20260831063526 83 183 0.0 2.0 0.00 0.00 0.00 61 1016.5
20260831063247 82 206 1.0 3.0 0.00 0.00 0.00 62 1016.5
20260831062523 82 263 1.0 3.0 0.00 0.00 0.00 62 1016.6
20260831062245 83 296 0.0 2.0 0.00 0.00 0.00 60 1016.5
20260831061522 82 163 1.0 2.0 0.00 0.00 0.00 60 1016.5
20260831061020 82 156 1.0 2.0 0.00 0.00 0.00 59 1016.5
20260831060741 82 161 0.0 2.0 0.00 0.00 0.00 59 1016.5
20260831060241 81 107 1.0 3.0 0.00 0.00 0.00 56 1016.6
20260831055743 81 187 1.0 6.0 0.00 0.00 0.00 57 1016.6
20260831055020 81 197 2.0 6.0 0.00 0.00 0.00 60 1016.5
20260831054518 80 162 2.0 5.0 0.00 0.00 0.00 62 1016.5
20260831054018 80 176 1.0 5.0 0.00 0.00 0.00 62 1016.5
20260831053519 80 153 1.0 3.0 0.00 0.00 0.00 64 1016.4
20260831053018 80 144 1.0 2.0 0.00 0.00 0.00 65 1016.3
20260831052518 80 203 1.0 2.0 0.00 0.00 0.00 65 1016.3
20260831052459 80 205 1.0 2.0 0.00 0.00 0.00 66 1016.2
20260831051512 79 188 1.0 2.0 0.00 0.00 0.00 67 1016.2
20260831051005 79 151 1.0 2.0 0.00 0.00 0.00 67 1016.2
20260831050459 79 152 0.0 2.0 0.00 0.00 0.00 69 1016.2
20260831045954 78 154 0.0 2.0 0.00 0.00 0.00 70 1016.1
20260831045448 78 217 0.0 2.0 0.00 0.00 0.00 71 1016.1
20260831045204 78 217 0.0 3.0 0.00 0.00 0.00 72 1016.0
20260831044657 77 239 0.0 3.0 0.00 0.00 0.00 72 1016.0
20260831043929 77 212 0.0 2.0 0.00 0.00 0.00 72 1015.9
20260831043429 77 212 0.0 2.0 0.00 0.00 0.00 72 1015.9
20260831043150 77 212 0.0 2.0 0.00 0.00 0.00 72 1016.0
20260831042429 77 228 1.0 2.0 0.00 0.00 0.00 73 1016.0
20260831041930 77 259 1.0 3.0 0.00 0.00 0.00 71 1015.9
20260831041430 77 264 1.0 3.0 0.00 0.00 0.00 71 1015.9
20260831040929 77 261 2.0 3.0 0.00 0.00 0.00 70 1015.8
20260831040427 78 266 1.0 3.0 0.00 0.00 0.00 69 1015.8
20260831035928 77 98 0.0 2.0 0.00 0.00 0.00 65 1015.7
20260831035428 77 100 0.0 0.0 0.00 0.00 0.00 66 1015.6
20260831034927 77 100 0.0 0.0 0.00 0.00 0.00 63 1015.7
20260831034426 77 100 0.0 0.0 0.00 0.00 0.00 62 1015.7
20260831033924 77 100 0.0 0.0 0.00 0.00 0.00 61 1015.8
20260831033422 77 100 0.0 1.0 0.00 0.00 0.00 62 1015.8
20260831032922 77 100 0.0 1.0 0.00 0.00 0.00 62 1015.8
20260831032420 77 100 0.0 1.0 0.00 0.00 0.00 62 1015.8
20260831031919 77 100 0.0 1.0 0.00 0.00 0.00 63 1015.8
20260831031418 77 100 0.0 1.0 0.00 0.00 0.00 63 1015.8
20260831030917 77 100 0.0 1.0 0.00 0.00 0.00 63 1015.7
20260831030418 77 100 0.0 1.0 0.00 0.00 0.00 63 1015.7
20260831025918 77 100 0.0 1.0 0.00 0.00 0.00 64 1015.8
20260831025418 77 100 0.0 1.0 0.00 0.00 0.00 64 1015.8
20260831025147 77 100 0.0 0.0 0.00 0.00 0.00 64 1015.8
20260831024418 77 100 0.0 1.0 0.00 0.00 0.00 65 1015.8
20260831023918 77 100 0.0 1.0 0.00 0.00 0.00 65 1015.8
20260831023418 77 100 0.0 1.0 0.00 0.00 0.00 67 1015.9
20260831022913 77 100 0.0 1.0 0.00 0.00 0.00 69 1015.9
20260831022413 77 100 0.0 0.0 0.00 0.00 0.00 70 1015.9
20260831021914 77 100 0.0 0.0 0.00 0.00 0.00 70 1015.9
20260831021413 77 100 0.0 1.0 0.00 0.00 0.00 70 1016.0
20260831020914 77 100 0.0 1.0 0.00 0.00 0.00 69 1016.0
20260831020414 77 100 0.0 1.0 0.00 0.00 0.00 68 1016.0
20260831015913 77 100 0.0 1.0 0.00 0.00 0.00 68 1016.0
20260831015639 77 100 0.0 0.0 0.00 0.00 0.00 68 1016.0
20260831015143 77 100 0.0 1.0 0.00 0.00 0.00 68 1016.1
20260831014631 77 100 1.0 1.0 0.00 0.00 0.00 68 1016.0
20260831014133 78 100 0.0 1.0 0.00 0.00 0.00 67 1016.0
20260831013411 78 100 0.0 1.0 0.00 0.00 0.00 68 1015.9
20260831012910 78 100 0.0 1.0 0.00 0.00 0.00 69 1015.9
20260831012409 78 100 0.0 1.0 0.00 0.00 0.00 69 1015.9
20260831011909 78 100 0.0 0.0 0.00 0.00 0.00 70 1015.9
20260831011408 78 100 0.0 0.0 0.00 0.00 0.00 69 1015.9
20260831010906 78 100 0.0 1.0 0.00 0.00 0.00 69 1015.9
20260831010406 78 100 0.0 1.0 0.00 0.00 0.00 70 1015.9
20260831005905 78 100 0.0 1.0 0.00 0.00 0.00 70 1016.0
20260831005406 78 100 0.0 0.0 0.00 0.00 0.00 70 1016.0
20260831004905 78 100 0.0 1.0 0.00 0.00 0.00 70 1016.0
20260831004403 78 100 0.0 1.0 0.00 0.00 0.00 70 1016.0
20260831003901 78 100 0.0 2.0 0.00 0.00 0.00 70 1015.9
20260831003359 78 100 1.0 2.0 0.00 0.00 0.00 70 1015.9
20260831003116 78 100 0.0 2.0 0.00 0.00 0.00 70 1015.8
20260831002358 78 100 0.0 1.0 0.00 0.00 0.00 70 1015.9
20260831002115 78 100 1.0 3.0 0.00 0.00 0.00 70 1015.9
20260831001347 78 100 1.0 3.0 0.00 0.00 0.00 70 1015.8
20260831000840 79 98 1.0 3.0 0.00 0.00 0.00 70 1015.8
20260831000334 79 98 1.0 3.0 0.00 0.00 0.00 70 1015.9
20260830235829 79 87 1.0 3.0 0.00 0.00 0.00 70 1016.0
20260830235539 79 358 0.0 1.0 0.00 0.00 0.00 72 1016.0
20260830234815 79 358 1.0 2.0 0.00 0.00 0.00 72 1015.9
20260830234309 79 358 1.0 2.0 0.00 0.00 0.00 72 1016.0
20260830233802 79 93 1.0 2.0 0.00 0.00 0.00 73 1015.9
20260830233257 79 96 0.0 1.0 0.00 0.00 0.00 73 1016.1
20260830232751 79 96 0.0 1.0 0.00 0.00 0.00 73 1016.0
20260830232245 79 96 0.0 1.0 0.00 0.00 0.00 73 1016.0
20260830231738 79 96 0.0 1.0 0.00 0.00 0.00 73 1016.1
20260830231233 79 96 0.0 1.0 0.00 0.00 0.00 73 1016.1